Weather History for Baltimore Martin, MD

Change the Weather History Date:

Saturday, March 16, 2013

  Actual Average Record
Temperature  
Mean Temperature 42 °F -  
Max Temperature 48 °F 48 °F 82 °F (2003)
Min Temperature 35 °F 33 °F 28 °F (1997)
Degree Days  
Heating Degree Days 24    
Moisture  
Dew Point 34 °F    
Average Humidity 76    
Maximum Humidity 87    
Minimum Humidity 61    
Precipitation  
Precipitation 0.00 in - - ()
Sea Level Pressure  
Sea Level Pressure 29.83 in    
Wind  
Wind Speed 2 mph (North)    
Max Wind Speed 16 mph    
Max Gust Speed -    
Visibility 10 miles    
Events      
Averages and records for this station are not official NWS values.
T = Trace of Precipitation, MM = Missing Value Source: NWS Daily Summary

Daily Weather History Graph

Daily Weather History Graph

Search for Another Location

Airport:

Trip Planner

Search our weather history database for the weather conditions in past years. The results will help you decide how hot, cold, wet, or windy it might be!

Date:

Astronomy

Mar. 16, 2013 Rise Set
Actual Time 7:15 AM EDT 7:13 PM EDT
Civil Twilight 6:48 AM EDT 7:40 PM EDT
Nautical Twilight 6:17 AM EDT 8:11 PM EDT
Astronomical Twilight 5:45 AM EDT 8:43 PM EDT
Moon 9:45 AM EDT (3/16) No Moon Set
Length of Visible Light 12h 52m
Length of Day
11h 58m
Waxing Crescent, 23% of the Moon is Illuminated
Mar 16
Waxing Crescent
Mar 19
First Quarter
Mar 27
Full
Apr 3
Last Quarter
Apr 10
New

Hourly Weather History & Observations

Time (EDT) Temp. Windchill Dew Point Humidity Pressure Visibility Wind Dir Wind Speed Gust Speed Precip Events Conditions
12:15 AM 41.0 °F - 35.6 °F 81% 29.81 in 10.0 mi Calm Calm - N/A   Clear
12:36 AM 41.0 °F - 35.6 °F 81% 29.81 in 10.0 mi Calm Calm - N/A   Clear
12:57 AM 39.2 °F - 33.8 °F 81% 29.81 in 10.0 mi Calm Calm - N/A   Clear
1:15 AM 39.2 °F - 33.8 °F 81% 29.81 in 10.0 mi Calm Calm - N/A   Clear
1:36 AM 37.4 °F - 33.8 °F 87% 29.81 in 10.0 mi Calm Calm - N/A   Clear
1:57 AM 37.4 °F - 33.8 °F 87% 29.81 in 10.0 mi Calm Calm - N/A   Clear
2:12 AM 37.4 °F - 33.8 °F 87% 29.81 in 10.0 mi Calm Calm - N/A   Clear
2:36 AM 37.4 °F - 32.0 °F 81% 29.82 in 10.0 mi Calm Calm - N/A   Clear
2:57 AM 35.6 °F 32.8 °F 32.0 °F 87% 29.82 in 10.0 mi North 3.5 mph - N/A   Clear
3:15 AM 37.4 °F - 33.8 °F 87% 29.83 in 10.0 mi Calm Calm - N/A   Clear
3:36 AM 41.0 °F 39.0 °F 33.8 °F 76% 29.83 in 10.0 mi North 3.5 mph - N/A   Scattered Clouds
3:57 AM 39.2 °F - 33.8 °F 81% 29.82 in 10.0 mi Calm Calm - N/A   Mostly Cloudy
4:15 AM 39.2 °F - 33.8 °F 81% 29.82 in 10.0 mi Calm Calm - N/A   Mostly Cloudy
4:36 AM 41.0 °F - 35.6 °F 81% 29.81 in 10.0 mi Calm Calm - N/A   Overcast
4:57 AM 42.8 °F - 33.8 °F 70% 29.81 in 10.0 mi Calm Calm - N/A   Overcast
5:15 AM 42.8 °F - 33.8 °F 70% 29.81 in 10.0 mi Calm Calm - N/A   Overcast
5:54 AM 46.4 °F - 33.8 °F 62% 29.81 in 10.0 mi Calm Calm - N/A   Overcast
6:46 AM 44.6 °F - 33.8 °F 66% 29.84 in 10.0 mi Calm Calm - N/A   Overcast
7:54 AM 44.6 °F 43.1 °F 33.8 °F 66% 29.84 in 10.0 mi ENE 3.5 mph - N/A   Overcast
8:54 AM 44.6 °F - 33.8 °F 66% 29.84 in 10.0 mi Calm Calm - N/A   Overcast
9:54 AM 44.6 °F - 35.6 °F 71% 29.84 in 10.0 mi Calm Calm - N/A   Mostly Cloudy
11:50 AM 46.4 °F 45.2 °F 35.6 °F 66% 29.81 in 10.0 mi NE 3.5 mph - N/A   Mostly Cloudy
12:50 PM 48.2 °F - 37.4 °F 66% 29.75 in 10.0 mi ENE 5.8 mph - N/A   Mostly Cloudy
1:45 PM 48.2 °F - 37.4 °F 66% 29.74 in 7.0 mi ENE 6.9 mph - N/A   Mostly Cloudy
3:45 PM 48.2 °F - 35.6 °F 62% 29.70 in 7.0 mi ENE 10.4 mph - N/A   Mostly Cloudy
4:45 PM 46.4 °F 39.8 °F 35.6 °F 66% 29.72 in 7.0 mi NE 16.1 mph - N/A   Mostly Cloudy
5:50 PM 44.6 °F 37.4 °F 32.0 °F 61% 29.74 in 7.0 mi NE 16.1 mph - N/A   Mostly Cloudy
6:50 PM 41.0 °F 34.3 °F 32.0 °F 70% 29.77 in 7.0 mi NNE 11.5 mph - N/A   Overcast
7:55 PM 39.2 °F 32.0 °F 33.8 °F 81% 29.82 in 7.0 mi NNE 11.5 mph - N/A   Overcast
9:45 PM 39.2 °F 35.0 °F 33.8 °F 81% 29.91 in 10.0 mi WNW 5.8 mph - N/A   Overcast
10:18 PM 37.4 °F 32.8 °F 32.0 °F 81% 29.92 in 10.0 mi NNW 5.8 mph - N/A   Overcast
10:39 PM 37.4 °F 34.9 °F 32.0 °F 81% 29.93 in 10.0 mi NNW 3.5 mph - N/A   Overcast
10:57 PM 37.4 °F 33.8 °F 33.8 °F 87% 29.94 in 10.0 mi NW 4.6 mph - N/A   Overcast
11:18 PM 37.4 °F 33.8 °F 33.8 °F 87% 29.95 in 10.0 mi NW 4.6 mph - N/A   Mostly Cloudy
11:39 PM 37.4 °F 33.8 °F 32.0 °F 81% 29.96 in 10.0 mi NW 4.6 mph - N/A   Mostly Cloudy
11:57 PM 37.4 °F 34.9 °F 32.0 °F 81% 29.96 in 10.0 mi NNW 3.5 mph - N/A   Mostly Cloudy